カタログに戻る

SL-6 R/B(2)

運用中HEO
NORAD 15355·ROCKET BODY·🇷🇺 Russia

打ち上げ Oct 4, 1984 から Plesetsk Cosmodrome

Loading…

次のパス (今後24時間)

TLE

最新Source: Space-Track

元期: Sep 14, 2026, 19:38 UTC

1 15355U 84107D   26257.81840929  .00000549  00000-0  00000-0 0  9990
2 15355  62.9074  99.0294 7334678  44.9111 355.0586  2.03342245311529

AllMySatでSL-6 R/B(2)をリアルタイム追跡

Download on the App Store